This demonstration page uses our WeatherBlox Daily Observations layout. Learn more.

Left ArrowRight Arrow

38.83388, -104.82136

Hourly Observations for January 31, 2017

Temp ( °F °C ) Dew Point ( °F °C ) Humidity (%) Winds ( mph kmh ) Pressure ( in mb ) Visibility ( mi km ) Precip ( " mm )
12:58 am 00:58 Partly Cloudy 48 9 11 -11.5 22 22 WNW 8 13 29.56 1001 10 16 0.00 0.00
1:58 am 01:58 Clear 45 7 12 -11.2 26 26 W 5 7 29.57 1001 10 16 0.00 0.00
2:58 am 02:58 Clear 47 8.2 11 -11.6 23 23 S 3 6 29.54 1001 10 16 0.00 0.00
3:58 am 03:58 Mostly Clear 45 7.1 12 -11.3 26 26 Calm 29.56 1001 10 16 0.00 0.00
4:58 am 04:58 Mostly Cloudy 46 7.6 11 -11.6 24 24 S 5 7 29.56 1001 10 16 0.00 0.00
5:58 am 05:58 Clear 44 6.6 13 -10.8 28 28 Calm 29.59 1002 10 16 0.00 0.00
6:58 am 06:58 Clear 45 7.1 13 -10.8 27 27 NW 7 11 29.61 1003 10 16 0.00 0.00
7:58 am 07:58 Sunny 47 8.4 11 -11.8 23 23 W 8 13 29.60 1002 10 16 0.00 0.00
8:58 am 08:58 Sunny 50 9.9 15 -9.7 24 24 Calm 29.55 1001 10 16 0.00 0.00
9:58 am 09:58 Sunny 52 11.3 9 -13 17 17 ESE 5 7 29.55 1001 10 16 0.00 0.00
10:58 am 10:58 Sunny 54 12 7 -13.7 15 15 SSE 9 15 29.51 999 10 16 0.00 0.00
11:58 am 11:58 Sunny 55 12.9 5 -15.2 13 13 S 5 7 29.48 998 10 16 0.00 0.00
12:44 pm 12:44 Sunny 57 14 3 -16 11 11 NNW 14 22 29.53 1000 10 16 0.00 0.00
12:58 pm 12:58 Sunny 57 13.8 4 -15.8 11 11 NNE 8 13 29.42 996 10 16 0.00 0.00
1:20 pm 13:20 Sunny 57 14 1 -17 10 10 NW 17 28 29.50 999 10 16 0.00 0.00
1:47 pm 13:47 Sunny 57 14 1 -17 10 10 NW 14 22 29.50 999 10 16 0.00 0.00
1:58 pm 13:58 Sunny 57 14 1 -17.2 10 10 NNW 12 19 29.41 996 10 16 0.00 0.00
2:58 pm 14:58 Sunny 56 13.5 0 -17.7 10 10 N 3 6 29.41 996 10 16 0.00 0.00
3:58 pm 15:58 Sunny 56 13.2 1 -17 11 11 SE 7 11 29.42 996 10 16 0.00 0.00
4:58 pm 16:58 Sunny 50 10.2 4 -15.7 15 15 WNW 8 13 29.45 997 10 16 0.00 0.00
5:58 pm 17:58 Clear 51 10.7 5 -15.1 15 15 NW 6 9 29.46 998 10 16 0.00 0.00
6:58 pm 18:58 Clear 51 10.7 -2 -18.9 11 11 NW 10 17 29.47 998 10 16 0.00 0.00
7:58 pm 19:58 Clear 52 11 0 -17.6 12 12 WNW 8 13 29.47 998 10 16 0.00 0.00
8:58 pm 20:58 Clear 49 9.3 -1 -18.6 12 12 SSW 10 17 29.49 999 10 16 0.00 0.00
9:58 pm 21:58 Clear 44 6.8 6 -14.6 20 20 Calm 29.51 999 10 16 0.00 0.00
10:58 pm 22:58 Clear 46 7.6 3 -16.1 17 17 Calm 29.52 1000 10 16 0.00 0.00
11:58 pm 23:58 Clear 43 6.2 3 -16 19 19 ESE 7 11 29.53 1000 10 16 0.00 0.00

Powered by AerisWeather